(514740) = 2007 CT33

Discovered at Mount Lemmon on 2007-02-06 by Mt. Lemmon Survey.

Orbit

Orbit type: Main Belt

Note: WebGL enabled browser required.

epoch2023-09-13.0
epoch JD2460200.5
perihelion date2021-11-19.01811
perihelion JD2459537.51811
argument of perihelion (°)252.62844
ascending node (°)293.17458
inclination (°)0.53088
eccentricity0.1307726
perihelion distance (AU)2.0439792
Tisserand w.r.t. Jupiter3.5
ΔV w.r.t. Earth (km/sec)8.9
semimajor axis (AU)2.3514896
mean anomaly (°)181.21365
mean daily motion (°/day)0.27333120
aphelion distance (AU)2.659
period (years)3.61
P-vector [x]-0.99483772
P-vector [y]-0.08923316
P-vector [z]-0.04832551
Q-vector [x]0.10112051
Q-vector [y]-0.91167529
Q-vector [z]-0.39827479
absolute magnitude18.43
phase slope0.15
uncertainty0
referenceMPO 780399
observations used161
oppositions9
arc length (days)8585
first opposition used2000
last opposition used2023
residual rms (arc-secs)0.65
perturbers coarse indicatorM-v
perturbers precise indicator003Ek
first observation date used2000-04-03.0
last observation date used2023-10-05.0
computer nameMPCLINUX

Observations

166 total observations over interval: 2000 04 03.19876 – 2023 10 05.299659
These data are available for download (format description).

